^^
Your Local Weather - Clay, NY Station Historical Data
Daily Summary for December 11, 2017 Units:  English    Metric   Both
« Previous Day
Next Day »
Daily Weekly Monthly Yearly Custom
  High: Low: Average:
Temperature: 29.9 °F 23.8 °F 25.6 °F
Dew Point: 24.8 °F 17.9 °F 20.6 °F
Humidity: 89% 72% 81%
Wind Speed: 4.0mph 0.0mph 1.8mph
Wind Gust: 7.0mph - -
Wind- - SSW
Pressure: 30.03 in 29.77 in -
Precipitation: 0.00 in    
Historical Graphs
 
 
Tabular Data for December 11, 2017
Time Temperature Dew Point Pressure Wind Wind Speed Wind Gust Humidity Rainfall Rate (Hourly) solar
00:04 28.9 °F 24.4 °F 29.87 in WSW 2.0 mph 2.0 mph 83% 0.00 in 0 W/m2
00:10 28.9 °F 24.1 °F 29.87 in West 3.0 mph 3.0 mph 82% 0.00 in 0 W/m2
00:16 28.9 °F 24.1 °F 29.87 in SSW 3.0 mph 7.0 mph 82% 0.00 in 0 W/m2
00:28 29.0 °F 23.9 °F 29.87 in SW 3.0 mph 7.0 mph 81% 0.00 in 0 W/m2
00:34 29.1 °F 24.0 °F 29.87 in WSW 4.0 mph 4.0 mph 81% 0.00 in 0 W/m2
00:40 29.2 °F 23.8 °F 29.86 in SW 3.0 mph 3.0 mph 80% 0.00 in 0 W/m2
00:46 29.2 °F 23.8 °F 29.86 in WSW 3.0 mph 5.0 mph 80% 0.00 in 0 W/m2
00:52 29.2 °F 23.5 °F 29.86 in SW 3.0 mph 3.0 mph 79% 0.00 in 0 W/m2
00:58 29.3 °F 23.6 °F 29.86 in WSW 3.0 mph 6.0 mph 79% 0.00 in 0 W/m2
01:04 29.2 °F 23.2 °F 29.86 in WSW 2.0 mph 2.0 mph 78% 0.00 in 0 W/m2
01:10 29.3 °F 23.3 °F 29.86 in SSW 2.0 mph 2.0 mph 78% 0.00 in 0 W/m2
01:16 29.4 °F 23.4 °F 29.86 in SW 3.0 mph 6.0 mph 78% 0.00 in 0 W/m2
01:22 29.3 °F 23.0 °F 29.86 in WSW 2.0 mph 2.0 mph 77% 0.00 in 0 W/m2
01:28 29.3 °F 23.0 °F 29.86 in WSW 1.0 mph 2.0 mph 77% 0.00 in 0 W/m2
01:34 29.2 °F 22.9 °F 29.86 in SW 1.0 mph 3.0 mph 77% 0.00 in 0 W/m2
01:40 29.2 °F 22.9 °F 29.86 in SW 2.0 mph 2.0 mph 77% 0.00 in 0 W/m2
01:46 29.3 °F 23.0 °F 29.86 in SW 2.0 mph 5.0 mph 77% 0.00 in 0 W/m2
01:52 29.3 °F 23.0 °F 29.87 in West 2.0 mph 4.0 mph 77% 0.00 in 0 W/m2
01:58 29.4 °F 23.1 °F 29.87 in SW 2.0 mph 6.0 mph 77% 0.00 in 0 W/m2
02:04 29.4 °F 22.8 °F 29.87 in WSW 2.0 mph 3.0 mph 76% 0.00 in 0 W/m2
02:10 29.5 °F 22.9 °F 29.87 in SW 3.0 mph 3.0 mph 76% 0.00 in 0 W/m2
02:22 29.6 °F 22.6 °F 29.87 in SW 2.0 mph 3.0 mph 75% 0.00 in 0 W/m2
02:28 29.6 °F 22.3 °F 29.87 in SW 1.0 mph 3.0 mph 74% 0.00 in 0 W/m2
02:34 29.5 °F 22.2 °F 29.87 in SW 1.0 mph 3.0 mph 74% 0.00 in 0 W/m2
02:40 29.5 °F 22.2 °F 29.87 in WSW 1.0 mph 1.0 mph 74% 0.00 in 0 W/m2
02:46 29.5 °F 22.2 °F 29.87 in SW 1.0 mph 2.0 mph 74% 0.00 in 0 W/m2
02:58 29.6 °F 22.0 °F 29.87 in WSW 1.0 mph 2.0 mph 73% 0.00 in 0 W/m2
03:10 29.8 °F 22.2 °F 29.88 in SW 2.0 mph 2.0 mph 73% 0.00 in 0 W/m2
03:16 29.9 °F 22.0 °F 29.88 in WSW 3.0 mph 3.0 mph 72% 0.00 in 0 W/m2
03:28 29.9 °F 22.3 °F 29.88 in WNW 3.0 mph 5.0 mph 73% 0.00 in 0 W/m2
03:40 29.6 °F 22.6 °F 29.89 in West 3.0 mph 4.0 mph 75% 0.00 in 0 W/m2
03:46 29.2 °F 23.2 °F 29.89 in West 4.0 mph 4.0 mph 78% 0.00 in 0 W/m2
03:58 28.5 °F 23.7 °F 29.89 in WSW 2.0 mph 7.0 mph 82% 0.00 in 0 W/m2
04:04 28.3 °F 23.8 °F 29.89 in WSW 2.0 mph 4.0 mph 83% 0.00 in 0 W/m2
04:10 28.1 °F 23.9 °F 29.89 in West 2.0 mph 3.0 mph 84% 0.00 in 0 W/m2
04:16 28.0 °F 24.1 °F 29.89 in WSW 2.0 mph 4.0 mph 85% 0.00 in 0 W/m2
04:22 27.9 °F 24.3 °F 29.89 in SW 3.0 mph 6.0 mph 86% 0.00 in 0 W/m2
04:28 27.9 °F 24.5 °F 29.89 in West 4.0 mph 6.0 mph 87% 0.00 in 0 W/m2
04:34 27.8 °F 24.4 °F 29.90 in WSW 3.0 mph 5.0 mph 87% 0.00 in 0 W/m2
04:40 27.7 °F 24.3 °F 29.90 in WSW 3.0 mph 5.0 mph 87% 0.00 in 0 W/m2
04:52 27.6 °F 24.5 °F 29.90 in WSW 3.0 mph 3.0 mph 88% 0.00 in 0 W/m2
04:58 27.6 °F 24.5 °F 29.90 in WSW 4.0 mph 4.0 mph 88% 0.00 in 0 W/m2
05:04 27.6 °F 24.8 °F 29.90 in WSW 4.0 mph 6.0 mph 89% 0.00 in 0 W/m2
05:10 27.5 °F 24.7 °F 29.90 in SW 3.0 mph 4.0 mph 89% 0.00 in 0 W/m2
05:16 27.5 °F 24.7 °F 29.90 in WSW 3.0 mph 6.0 mph 89% 0.00 in 0 W/m2
05:22 27.6 °F 24.8 °F 29.90 in SW 3.0 mph 3.0 mph 89% 0.00 in 0 W/m2
05:28 27.6 °F 24.8 °F 29.91 in SW 2.0 mph 3.0 mph 89% 0.00 in 0 W/m2
05:34 27.6 °F 24.8 °F 29.91 in West 2.0 mph 2.0 mph 89% 0.00 in 0 W/m2
05:40 27.6 °F 24.8 °F 29.91 in West 1.0 mph 1.0 mph 89% 0.00 in 0 W/m2
05:46 27.6 °F 24.8 °F 29.91 in WSW 2.0 mph 2.0 mph 89% 0.00 in 0 W/m2
05:52 27.6 °F 24.8 °F 29.92 in WSW 1.0 mph 2.0 mph 89% 0.00 in 0 W/m2
05:58 27.6 °F 24.8 °F 29.92 in WSW 1.0 mph 3.0 mph 89% 0.00 in 0 W/m2
06:04 27.6 °F 24.8 °F 29.92 in West 1.0 mph 3.0 mph 89% 0.00 in 0 W/m2
06:10 27.5 °F 24.7 °F 29.92 in West 1.0 mph 3.0 mph 89% 0.00 in 0 W/m2
06:16 27.3 °F 24.5 °F 29.92 in NW 2.0 mph 3.0 mph 89% 0.00 in 0 W/m2
06:22 27.0 °F 24.2 °F 29.92 in NW 2.0 mph 2.0 mph 89% 0.00 in 0 W/m2
06:28 26.8 °F 24.0 °F 29.93 in NW 1.0 mph 2.0 mph 89% 0.00 in 0 W/m2
06:36 26.7 °F 23.9 °F 29.93 in NW 1.0 mph 3.0 mph 89% 0.00 in 0 W/m2
06:42 26.7 °F 23.9 °F 29.93 in NW 1.0 mph 4.0 mph 89% 0.00 in 0 W/m2
06:48 26.7 °F 23.9 °F 29.93 in NW 1.0 mph 4.0 mph 89% 0.00 in 0 W/m2
06:54 26.7 °F 23.9 °F 29.94 in NW 1.0 mph 3.0 mph 89% 0.00 in 0 W/m2
07:00 26.7 °F 23.9 °F 29.95 in WNW 3.0 mph 4.0 mph 89% 0.00 in 0 W/m2
07:06 26.3 °F 23.5 °F 29.95 in NW 4.0 mph 5.0 mph 89% 0.00 in 0 W/m2
07:12 25.9 °F 23.1 °F 29.95 in NNW 4.0 mph 5.0 mph 89% 0.00 in 0 W/m2
07:18 25.8 °F 23.0 °F 29.95 in North 3.0 mph 5.0 mph 89% 0.00 in 0 W/m2
07:24 25.7 °F 22.9 °F 29.95 in NNW 3.0 mph 5.0 mph 89% 0.00 in 0 W/m2
07:30 25.5 °F 22.7 °F 29.95 in North 3.0 mph 4.0 mph 89% 0.00 in 0 W/m2
07:36 25.4 °F 22.6 °F 29.95 in NNW 2.0 mph 5.0 mph 89% 0.00 in 0 W/m2
07:42 25.3 °F 22.5 °F 29.95 in NNW 2.0 mph 2.0 mph 89% 0.00 in 0 W/m2
07:48 25.3 °F 22.5 °F 29.96 in NW 2.0 mph 3.0 mph 89% 0.00 in 5 W/m2
07:54 25.3 °F 22.5 °F 29.96 in NW 1.0 mph 2.0 mph 89% 0.00 in 5 W/m2
08:00 25.3 °F 22.5 °F 29.95 in NW 1.0 mph 5.0 mph 89% 0.00 in 9 W/m2
08:06 25.2 °F 22.4 °F 29.96 in NW 2.0 mph 5.0 mph 89% 0.00 in 11 W/m2
08:12 25.3 °F 22.5 °F 29.96 in NW 1.0 mph 1.0 mph 89% 0.00 in 12 W/m2
08:18 25.3 °F 22.2 °F 29.97 in NW 1.0 mph 3.0 mph 88% 0.00 in 11 W/m2
08:24 25.2 °F 22.1 °F 29.97 in NW 2.0 mph 2.0 mph 88% 0.00 in 14 W/m2
08:30 24.8 °F 21.8 °F 29.97 in NW 3.0 mph 3.0 mph 88% 0.00 in 18 W/m2
08:36 24.5 °F 21.2 °F 29.98 in North 3.0 mph 7.0 mph 87% 0.00 in 19 W/m2
08:42 24.3 °F 20.7 °F 29.99 in North 4.0 mph 5.0 mph 86% 0.00 in 23 W/m2
08:48 24.2 °F 20.6 °F 29.99 in North 4.0 mph 6.0 mph 86% 0.00 in 25 W/m2
08:54 24.1 °F 20.5 °F 30.00 in NW 3.0 mph 5.0 mph 86% 0.00 in 25 W/m2
09:00 24.0 °F 20.1 °F 30.00 in NW 3.0 mph 3.0 mph 85% 0.00 in 37 W/m2
09:06 24.0 °F 20.1 °F 30.00 in NW 3.0 mph 4.0 mph 85% 0.00 in 37 W/m2
09:12 24.1 °F 20.2 °F 30.00 in North 2.0 mph 2.0 mph 85% 0.00 in 47 W/m2
09:18 24.1 °F 20.2 °F 30.00 in NNW 2.0 mph 3.0 mph 85% 0.00 in 47 W/m2
09:24 24.1 °F 20.0 °F 30.00 in NNE 2.0 mph 4.0 mph 84% 0.00 in 51 W/m2
09:30 24.0 °F 19.9 °F 30.01 in North 3.0 mph 3.0 mph 84% 0.00 in 63 W/m2
09:36 23.9 °F 19.8 °F 30.01 in North 2.0 mph 3.0 mph 84% 0.00 in 69 W/m2
09:42 23.9 °F 19.8 °F 30.01 in North 2.0 mph 3.0 mph 84% 0.00 in 63 W/m2
09:48 24.0 °F 19.9 °F 30.01 in NNW 2.0 mph 3.0 mph 84% 0.00 in 63 W/m2
09:54 23.9 °F 19.8 °F 30.02 in NNE 2.0 mph 4.0 mph 84% 0.00 in 62 W/m2
10:00 23.8 °F 19.7 °F 30.02 in NE 3.0 mph 3.0 mph 84% 0.00 in 67 W/m2
10:06 23.8 °F 19.9 °F 30.02 in NNW 2.0 mph 3.0 mph 85% 0.00 in 97 W/m2
10:12 23.9 °F 19.8 °F 30.01 in North 2.0 mph 3.0 mph 84% 0.00 in 100 W/m2
10:18 24.0 °F 19.9 °F 30.01 in NNW 3.0 mph 4.0 mph 84% 0.00 in 113 W/m2
10:24 24.1 °F 20.2 °F 30.02 in NW 2.0 mph 3.0 mph 85% 0.00 in 63 W/m2
10:30 24.2 °F 20.1 °F 30.02 in NW 2.0 mph 5.0 mph 84% 0.00 in 67 W/m2
10:36 24.0 °F 19.6 °F 30.03 in NW 3.0 mph 5.0 mph 83% 0.00 in 67 W/m2
10:42 23.9 °F 19.5 °F 30.03 in North 4.0 mph 5.0 mph 83% 0.00 in 88 W/m2
10:48 24.2 °F 20.1 °F 30.03 in North 3.0 mph 5.0 mph 84% 0.00 in 102 W/m2
10:54 24.2 °F 19.8 °F 30.03 in NNW 3.0 mph 4.0 mph 83% 0.00 in 67 W/m2
11:00 24.2 °F 20.1 °F 30.03 in NNW 3.0 mph 5.0 mph 84% 0.00 in 49 W/m2
11:06 24.0 °F 19.6 °F 30.03 in North 2.0 mph 5.0 mph 83% 0.00 in 49 W/m2
11:12 23.9 °F 19.8 °F 30.02 in North 2.0 mph 2.0 mph 84% 0.00 in 63 W/m2
11:18 24.0 °F 19.9 °F 30.01 in North 2.0 mph 2.0 mph 84% 0.00 in 74 W/m2
11:24 24.0 °F 19.9 °F 30.01 in NNW 2.0 mph 2.0 mph 84% 0.00 in 102 W/m2
11:30 24.2 °F 20.3 °F 30.01 in North 2.0 mph 4.0 mph 85% 0.00 in 114 W/m2
11:36 24.3 °F 20.2 °F 30.01 in NNW 3.0 mph 4.0 mph 84% 0.00 in 142 W/m2
11:42 24.5 °F 20.4 °F 30.01 in NNE 3.0 mph 3.0 mph 84% 0.00 in 151 W/m2
11:48 24.4 °F 20.3 °F 30.00 in NW 3.0 mph 4.0 mph 84% 0.00 in 195 W/m2
11:54 24.5 °F 20.4 °F 30.00 in North 3.0 mph 7.0 mph 84% 0.00 in 162 W/m2
12:00 24.5 °F 19.5 °F 30.00 in NNW 3.0 mph 4.0 mph 81% 0.00 in 114 W/m2
12:06 24.3 °F 19.3 °F 30.00 in NNW 3.0 mph 4.0 mph 81% 0.00 in 104 W/m2
12:12 24.2 °F 19.2 °F 30.00 in NNW 2.0 mph 3.0 mph 81% 0.00 in 90 W/m2
12:18 24.2 °F 19.2 °F 30.00 in NNW 2.0 mph 5.0 mph 81% 0.00 in 79 W/m2
12:24 24.1 °F 19.1 °F 30.00 in NW 3.0 mph 5.0 mph 81% 0.00 in 70 W/m2
12:30 24.2 °F 18.9 °F 30.00 in North 3.0 mph 3.0 mph 80% 0.00 in 77 W/m2
12:36 24.3 °F 19.0 °F 30.00 in NNW 2.0 mph 4.0 mph 80% 0.00 in 81 W/m2
12:42 24.3 °F 19.0 °F 29.99 in NNW 2.0 mph 3.0 mph 80% 0.00 in 98 W/m2
12:48 24.5 °F 19.2 °F 29.99 in NNE 2.0 mph 4.0 mph 80% 0.00 in 123 W/m2
12:54 24.6 °F 19.3 °F 29.98 in NW 2.0 mph 3.0 mph 80% 0.00 in 130 W/m2
13:00 24.3 °F 18.7 °F 29.99 in NNW 3.0 mph 3.0 mph 79% 0.00 in 111 W/m2
13:06 24.3 °F 18.7 °F 29.99 in NNW 3.0 mph 3.0 mph 79% 0.00 in 105 W/m2
13:12 24.1 °F 18.2 °F 30.00 in NNW 2.0 mph 3.0 mph 78% 0.00 in 79 W/m2
13:18 24.3 °F 18.4 °F 29.99 in NNW 2.0 mph 3.0 mph 78% 0.00 in 77 W/m2
13:24 24.5 °F 18.3 °F 29.98 in NNW 1.0 mph 2.0 mph 77% 0.00 in 83 W/m2
13:30 24.5 °F 18.0 °F 29.99 in Calm     76% 0.00 in 65 W/m2
13:36 24.6 °F 18.1 °F 29.99 in NNW 1.0 mph 1.0 mph 76% 0.00 in 62 W/m2
13:42 24.6 °F 18.1 °F 29.99 in NNW 1.0 mph 2.0 mph 76% 0.00 in 69 W/m2
13:48 24.5 °F 18.3 °F 29.98 in Calm   2.0 mph 77% 0.00 in 86 W/m2
13:54 24.5 °F 18.3 °F 29.98 in Calm   1.0 mph 77% 0.00 in 77 W/m2
14:00 24.6 °F 18.4 °F 29.98 in Calm     77% 0.00 in 81 W/m2
14:06 24.5 °F 18.0 °F 29.98 in ENE 1.0 mph 2.0 mph 76% 0.00 in 76 W/m2
14:12 24.5 °F 18.0 °F 29.99 in ENE 1.0 mph 1.0 mph 76% 0.00 in 63 W/m2
14:18 24.6 °F 18.1 °F 29.99 in Calm   1.0 mph 76% 0.00 in 65 W/m2
14:24 24.7 °F 18.2 °F 29.99 in ENE 1.0 mph 2.0 mph 76% 0.00 in 74 W/m2
14:30 24.8 °F 18.3 °F 29.99 in Calm     76% 0.00 in 86 W/m2
14:36 24.9 °F 18.4 °F 29.99 in Calm     76% 0.00 in 86 W/m2
14:42 24.7 °F 18.2 °F 29.98 in ENE 1.0 mph 3.0 mph 76% 0.00 in 67 W/m2
14:48 24.6 °F 18.4 °F 29.99 in ENE 1.0 mph 3.0 mph 77% 0.00 in 56 W/m2
14:54 24.4 °F 18.2 °F 30.00 in ENE 1.0 mph 2.0 mph 77% 0.00 in 49 W/m2
15:00 24.4 °F 18.2 °F 30.00 in Calm   2.0 mph 77% 0.00 in 46 W/m2
15:06 24.4 °F 18.2 °F 29.99 in ENE 1.0 mph 2.0 mph 77% 0.00 in 49 W/m2
15:12 24.3 °F 18.1 °F 29.99 in ENE 1.0 mph 2.0 mph 77% 0.00 in 49 W/m2
15:18 24.3 °F 18.4 °F 30.00 in ENE 1.0 mph 2.0 mph 78% 0.00 in 44 W/m2
15:24 24.4 °F 18.5 °F 29.99 in Calm   2.0 mph 78% 0.00 in 49 W/m2
15:30 24.4 °F 18.5 °F 30.00 in ENE 1.0 mph 2.0 mph 78% 0.00 in 49 W/m2
15:36 24.2 °F 18.3 °F 30.00 in ENE 1.0 mph 2.0 mph 78% 0.00 in 37 W/m2
15:42 24.2 °F 18.3 °F 30.00 in ENE 1.0 mph 2.0 mph 78% 0.00 in 28 W/m2
15:48 24.2 °F 18.3 °F 29.99 in Calm   2.0 mph 78% 0.00 in 21 W/m2
15:54 24.2 °F 18.0 °F 29.99 in ENE 1.0 mph 1.0 mph 77% 0.00 in 21 W/m2
16:00 24.1 °F 18.2 °F 29.99 in ENE 1.0 mph 1.0 mph 78% 0.00 in 19 W/m2
16:06 24.1 °F 18.2 °F 29.99 in Calm   1.0 mph 78% 0.00 in 16 W/m2
16:12 24.0 °F 18.1 °F 29.98 in Calm     78% 0.00 in 11 W/m2
16:20 24.0 °F 18.1 °F 29.98 in Calm     78% 0.00 in 7 W/m2
16:26 24.0 °F 18.1 °F 29.98 in ENE 1.0 mph 1.0 mph 78% 0.00 in 0 W/m2
16:32 24.0 °F 18.1 °F 29.97 in Calm   1.0 mph 78% 0.00 in 0 W/m2
16:38 23.9 °F 18.0 °F 29.97 in ENE 1.0 mph 2.0 mph 78% 0.00 in 0 W/m2
16:44 23.9 °F 18.0 °F 29.97 in ENE 1.0 mph 1.0 mph 78% 0.00 in 0 W/m2
16:50 23.9 °F 18.0 °F 29.97 in Calm     78% 0.00 in 0 W/m2
16:56 23.9 °F 18.0 °F 29.97 in Calm   2.0 mph 78% 0.00 in 0 W/m2
17:02 23.9 °F 18.0 °F 29.96 in ENE 1.0 mph 2.0 mph 78% 0.00 in 0 W/m2
17:08 23.8 °F 17.9 °F 29.96 in ENE 1.0 mph 2.0 mph 78% 0.00 in 0 W/m2
17:14 23.9 °F 18.0 °F 29.96 in ENE 1.0 mph 1.0 mph 78% 0.00 in 0 W/m2
17:20 23.9 °F 18.0 °F 29.96 in Calm     78% 0.00 in 0 W/m2
17:26 23.9 °F 18.0 °F 29.95 in Calm   1.0 mph 78% 0.00 in 0 W/m2
17:32 23.9 °F 18.0 °F 29.95 in Calm     78% 0.00 in 0 W/m2
17:38 23.9 °F 18.0 °F 29.95 in Calm   1.0 mph 78% 0.00 in 0 W/m2
17:44 23.9 °F 18.0 °F 29.94 in Calm   2.0 mph 78% 0.00 in 0 W/m2
17:50 23.9 °F 18.0 °F 29.95 in Calm     78% 0.00 in 0 W/m2
17:56 23.9 °F 18.0 °F 29.95 in Calm     78% 0.00 in 0 W/m2
18:02 24.0 °F 18.1 °F 29.94 in Calm     78% 0.00 in 0 W/m2
18:08 24.1 °F 18.5 °F 29.94 in Calm     79% 0.00 in 0 W/m2
18:14 24.1 °F 18.5 °F 29.94 in Calm   1.0 mph 79% 0.00 in 0 W/m2
18:20 24.1 °F 18.5 °F 29.94 in ENE 1.0 mph 1.0 mph 79% 0.00 in 0 W/m2
18:26 24.2 °F 18.6 °F 29.94 in Calm   2.0 mph 79% 0.00 in 0 W/m2
18:32 24.2 °F 18.3 °F 29.94 in ENE 1.0 mph 3.0 mph 78% 0.00 in 0 W/m2
18:38 24.3 °F 18.4 °F 29.93 in ENE 1.0 mph 4.0 mph 78% 0.00 in 0 W/m2
18:44 24.3 °F 18.4 °F 29.92 in East 1.0 mph 2.0 mph 78% 0.00 in 0 W/m2
18:50 24.4 °F 18.5 °F 29.92 in East 1.0 mph 2.0 mph 78% 0.00 in 0 W/m2
18:56 24.4 °F 18.5 °F 29.92 in East 2.0 mph 2.0 mph 78% 0.00 in 0 W/m2
19:02 24.4 °F 18.5 °F 29.92 in ESE 1.0 mph 2.0 mph 78% 0.00 in 0 W/m2
19:08 24.5 °F 18.6 °F 29.91 in East 2.0 mph 5.0 mph 78% 0.00 in 0 W/m2
19:14 24.5 °F 18.6 °F 29.91 in East 2.0 mph 3.0 mph 78% 0.00 in 0 W/m2
19:20 24.5 °F 18.6 °F 29.91 in East 2.0 mph 2.0 mph 78% 0.00 in 0 W/m2
19:26 24.6 °F 18.7 °F 29.91 in East 2.0 mph 5.0 mph 78% 0.00 in 0 W/m2
19:32 24.6 °F 18.7 °F 29.90 in SSE 2.0 mph 2.0 mph 78% 0.00 in 0 W/m2
19:38 24.6 °F 18.7 °F 29.90 in East 2.0 mph 3.0 mph 78% 0.00 in 0 W/m2
19:44 24.7 °F 18.8 °F 29.90 in East 2.0 mph 2.0 mph 78% 0.00 in 0 W/m2
19:50 24.7 °F 18.5 °F 29.90 in East 2.0 mph 3.0 mph 77% 0.00 in 0 W/m2
19:56 24.8 °F 18.9 °F 29.90 in SE 1.0 mph 3.0 mph 78% 0.00 in 0 W/m2
20:02 24.8 °F 18.6 °F 29.89 in SE 2.0 mph 2.0 mph 77% 0.00 in 0 W/m2
20:08 24.8 °F 18.9 °F 29.88 in ESE 2.0 mph 2.0 mph 78% 0.00 in 0 W/m2
20:14 24.8 °F 18.6 °F 29.88 in ESE 3.0 mph 4.0 mph 77% 0.00 in 0 W/m2
20:20 24.9 °F 19.0 °F 29.87 in SE 2.0 mph 3.0 mph 78% 0.00 in 0 W/m2
20:26 24.8 °F 18.9 °F 29.87 in SE 2.0 mph 3.0 mph 78% 0.00 in 0 W/m2
20:32 24.8 °F 18.9 °F 29.87 in East 2.0 mph 2.0 mph 78% 0.00 in 0 W/m2
20:38 24.9 °F 19.0 °F 29.87 in SE 2.0 mph 2.0 mph 78% 0.00 in 0 W/m2
20:44 24.9 °F 19.0 °F 29.86 in East 2.0 mph 3.0 mph 78% 0.00 in 0 W/m2
20:50 24.9 °F 19.0 °F 29.87 in ESE 2.0 mph 2.0 mph 78% 0.00 in 0 W/m2
20:56 24.9 °F 19.0 °F 29.87 in ENE 2.0 mph 2.0 mph 78% 0.00 in 0 W/m2
21:02 25.0 °F 19.1 °F 29.86 in ENE 2.0 mph 2.0 mph 78% 0.00 in 0 W/m2
21:08 25.0 °F 19.1 °F 29.86 in ENE 2.0 mph 3.0 mph 78% 0.00 in 0 W/m2
21:14 25.0 °F 19.1 °F 29.86 in ENE 2.0 mph 2.0 mph 78% 0.00 in 0 W/m2
21:20 25.0 °F 19.1 °F 29.86 in ENE 2.0 mph 2.0 mph 78% 0.00 in 0 W/m2
21:26 25.0 °F 19.1 °F 29.86 in ENE 2.0 mph 3.0 mph 78% 0.00 in 0 W/m2
21:32 25.0 °F 19.4 °F 29.84 in East 2.0 mph 3.0 mph 79% 0.00 in 0 W/m2
21:38 25.1 °F 19.5 °F 29.84 in East 2.0 mph 3.0 mph 79% 0.00 in 0 W/m2
21:44 25.1 °F 19.5 °F 29.84 in ENE 2.0 mph 3.0 mph 79% 0.00 in 0 W/m2
21:50 25.1 °F 19.5 °F 29.84 in East 2.0 mph 2.0 mph 79% 0.00 in 0 W/m2
21:56 25.2 °F 19.6 °F 29.84 in East 2.0 mph 2.0 mph 79% 0.00 in 0 W/m2
22:02 25.3 °F 19.7 °F 29.84 in East 2.0 mph 2.0 mph 79% 0.00 in 0 W/m2
22:08 25.3 °F 19.7 °F 29.83 in East 2.0 mph 3.0 mph 79% 0.00 in 0 W/m2
22:14 25.4 °F 20.1 °F 29.83 in East 2.0 mph 2.0 mph 80% 0.00 in 0 W/m2
22:20 25.4 °F 19.8 °F 29.83 in ESE 2.0 mph 2.0 mph 79% 0.00 in 0 W/m2
22:26 25.5 °F 20.2 °F 29.83 in ESE 2.0 mph 2.0 mph 80% 0.00 in 0 W/m2
22:32 25.6 °F 20.3 °F 29.83 in East 1.0 mph 2.0 mph 80% 0.00 in 0 W/m2
22:38 25.7 °F 20.4 °F 29.82 in East 1.0 mph 2.0 mph 80% 0.00 in 0 W/m2
22:44 25.7 °F 20.7 °F 29.82 in East 1.0 mph 2.0 mph 81% 0.00 in 0 W/m2
22:50 25.7 °F 21.0 °F 29.81 in East 1.0 mph 2.0 mph 82% 0.00 in 0 W/m2
23:02 25.7 °F 21.5 °F 29.81 in East 1.0 mph 2.0 mph 84% 0.00 in 0 W/m2
23:08 25.6 °F 21.7 °F 29.81 in East 1.0 mph 3.0 mph 85% 0.00 in 0 W/m2
23:14 25.6 °F 21.7 °F 29.80 in ENE 2.0 mph 2.0 mph 85% 0.00 in 0 W/m2
23:20 25.6 °F 22.0 °F 29.80 in NE 2.0 mph 2.0 mph 86% 0.00 in 0 W/m2
23:26 25.6 °F 22.3 °F 29.79 in East 2.0 mph 3.0 mph 87% 0.00 in 0 W/m2
23:32 25.7 °F 22.4 °F 29.79 in ENE 2.0 mph 2.0 mph 87% 0.00 in 0 W/m2
23:38 25.7 °F 22.4 °F 29.78 in ENE 2.0 mph 4.0 mph 87% 0.00 in 0 W/m2
23:44 25.8 °F 22.7 °F 29.78 in ENE 2.0 mph 4.0 mph 88% 0.00 in 0 W/m2
23:50 25.9 °F 22.8 °F 29.78 in ENE 3.0 mph 3.0 mph 88% 0.00 in 0 W/m2
23:56 26.0 °F 22.9 °F 29.77 in East 3.0 mph 3.0 mph 88% 0.00 in 0 W/m2
Country Meadow, Clay, NY, USA
Compliments of Weather Underground - 2 mb